Wind_Speed
11 11 9 8 3 6 19 21 18 21 18 15 11 13 13 10 13 19 21 14 19 18 17 16 15 14 12 12 12 10 10 10 10 12 14 15 16 16 16 17 17 17 16 15 16 16 16 16 16
8 13 6 4 6 16 20 17 20 16 14 12 15 14 14 17 10 22 20 20 15 16 15 14 12 11 9 9 8 8 8 9 10 12 13 15 17 16 16 16 16 15 15 15 14 15 15 17 17
9 11 4 3 5 16 22 18 18 18 16 7 9 13 16 24 24 21 21 22 10 11 13 10 9 8 7 8 8 9 11 10 11 13 12 14 14 14 14 14 14 14 13 14 13 14 15 16 16
14 9 3 2 13 19 20 19 20 18 13 5 22 24 23 20 22 20 18 17 12 13 12 9 7 7 9 11 12 12 12 13 13 13 14 13 14 13 13 13 13 13 13 13 13 13 15 16 16
3 8 4 3 13 21 18 19 20 16 16 16 18 24 23 18 20 19 16 8 10 11 11 10 10 11 12 13 13 13 12 13 15 14 14 13 13 13 14 13 12 13 14 14 13 15 16 16 15
6 12 8 9 18 18 18 20 16 16 6 22 20 23 21 21 15 18 15 13 9 12 12 12 13 13 13 12 13 13 13 13 15 14 12 12 12 12 13 14 14 13 14 15 15 16 16 16 14
4 11 10 13 21 23 21 19 12 17 17 18 17 24 21 17 20 19 16 12 20 10 11 11 12 12 11 12 12 13 14 14 15 13 12 11 11 12 13 14 14 14 15 15 16 16 16 15 14
5 8 12 14 20 22 18 14 22 13 20 17 11 20 22 24 19 19 12 12 5 1 4 12 11 12 11 10 11 13 15 14 13 13 12 12 10 12 14 14 14 14 15 16 16 16 16 15 15
4 7 8 16 22 21 20 18 16 9 20 6 7 18 20 21 18 18 19 11 7 6 9 7 11 11 12 10 10 12 14 14 14 12 12 12 13 13 13 15 13 15 16 16 15 16 16 17 16
3 7 7 22 21 22 18 16 16 15 15 10 18 14 24 20 15 13 7 6 8 8 11 8 10 10 11 10 10 11 12 12 10 11 15 15 17 14 15 17 16 16 16 16 14 12 14 15 15
13 15 19 16 25 21 20 15 12 11 13 18 21 21 22 20 14 16 7 3 2 6 11 15 6 12 12 11 11 12 12 12 9 6 14 17 14 15 12 16 15 16 12 11 14 12 2 20 20
11 5 8 9 19 25 17 15 14 11 16 20 19 17 22 21 16 14 14 12 5 8 7 9 9 13 9 11 8 10 11 11 11 13 13 15 11 12 6 17 20 14 11 16 14 14 14 13 20
11 4 7 14 24 26 17 14 14 17 19 17 18 21 21 19 17 14 11 3 3 6 8 10 11 14 13 13 13 9 10 13 12 8 13 13 8 12 9 14 18 22 19 8 8 18 20 19 17
4 5 18 22 27 28 14 17 16 12 16 19 21 20 20 18 17 15 9 9 9 6 13 10 12 13 17 19 19 13 12 14 8 8 7 13 9 12 18 15 5 16 12 12 12 20 17 19 14
5 7 21 25 19 17 21 18 15 16 20 22 21 20 19 17 18 17 13 13 13 15 11 13 12 12 13 15 19 11 9 10 12 8 7 11 12 11 7 13 8 14 15 23 26 20 18 14 14
8 8 15 23 17 21 20 18 21 19 23 23 22 20 19 18 16 17 14 12 12 13 11 13 10 12 18 20 16 13 9 11 7 10 6 8 9 13 9 17 10 11 18 20 17 17 10 8 13
7 6 11 21 23 20 15 22 19 20 22 22 22 20 19 18 16 17 17 13 16 11 11 14 11 16 17 16 16 10 8 7 10 10 12 9 7 9 11 11 13 13 18 12 9 14 18 13 4
15 4 17 16 28 25 11 18 21 21 21 22 21 20 19 18 16 15 16 19 20 12 13 10 11 17 18 16 18 14 12 10 3 10 6 10 7 8 10 10 11 15 13 9 16 10 16 9 15
3 4 12 20 29 36 17 20 28 24 21 24 22 23 21 20 16 14 18 17 18 13 16 16 15 18 17 16 11 12 11 13 8 6 8 7 7 6 10 11 7 14 11 10 15 19 18 19 14
5 1 14 10 11 24 20 22 23 25 29 23 29 21 23 21 20 19 21 16 16 14 15 15 15 17 20 15 11 13 11 7 3 5 5 6 8 6 6 10 10 6 9 9 9 12 14 16 16
16 15 15 5 10 7 3 8 28 32 27 36 33 28 33 23 30 24 20 18 17 12 12 17 17 16 19 19 14 13 11 10 8 6 6 4 5 6 5 4 6 10 10 7 8 13 12 16 13
10 6 8 15 9 9 13 2 10 36 34 32 39 38 32 30 22 25 21 21 19 12 14 18 18 17 16 18 18 19 9 8 8 7 6 7 4 6 6 5 6 7 4 10 8 12 11 9 13
7 5 8 12 12 12 18 7 5 10 37 34 38 36 40 31 34 26 15 22 21 16 14 17 19 18 18 16 13 15 13 10 8 7 14 2 4 6 7 8 6 7 6 6 10 9 12 15 12
12 16 14 18 0 8 18 14 14 28 19 10 44 39 38 26 33 33 20 30 18 20 20 16 18 21 18 16 15 14 11 12 9 13 8 2 4 8 5 5 6 6 6 6 10 9 10 13 14
8 18 10 7 7 13 20 20 18 13 21 8 19 45 37 37 31 33 26 19 27 24 20 14 20 20 19 17 16 16 13 11 10 4 7 5 3 6 5 4 5 5 3 4 7 8 6 8 10
16 22 11 4 5 5 9 10 6 7 11 15 18 37 46 41 31 34 27 33 27 23 27 22 18 21 20 19 17 16 16 13 14 17 11 11 14 7 8 5 5 5 7 6 6 6 8 8 8
14 20 17 4 8 11 5 13 7 3 12 16 23 27 43 40 37 32 32 38 37 33 26 25 18 20 21 22 20 19 17 17 13 12 11 13 21 11 8 7 4 4 4 5 7 7 6 6 6
18 10 18 21 7 9 5 7 12 16 14 21 20 27 30 35 36 31 35 31 31 25 27 25 27 18 19 23 21 21 19 19 15 14 13 15 5 7 8 6 6 5 4 3 3 4 6 3 7
19 17 15 20 19 11 4 2 9 17 15 17 26 26 22 20 35 37 39 33 35 27 29 28 21 21 17 19 18 20 20 20 16 14 15 13 13 10 8 7 5 6 5 3 2 4 5 5 5
19 21 14 14 15 16 17 10 17 14 17 17 14 24 23 16 23 27 41 43 31 30 31 27 27 19 15 16 15 16 17 18 18 15 17 14 14 11 7 8 7 8 6 6 5 6 6 5 5
Wind_Direction
111 123 152 62 277 134 107 111 116 114 105 103 92 99 88 100 120 122 124 99 134 124 125 118 113 110 107 98 95 93 91 92 94 90 87 83 81 83 87 90 89 92 96 97 97 96 93 91 89
133 117 83 46 120 122 120 125 123 119 117 112 106 89 88 93 84 126 128 150 139 130 126 120 118 114 107 103 101 95 92 97 98 98 90 84 81 83 85 86 85 88 95 98 97 96 93 91 91
97 79 101 332 136 138 129 135 126 123 106 99 109 91 111 109 110 127 141 140 130 133 125 117 115 108 108 105 100 92 93 105 108 104 101 93 84 81 81 82 84 85 89 92 92 90 88 88 88
84 343 33 15 114 126 131 136 133 117 111 110 112 96 99 118 127 136 137 145 166 133 130 128 122 120 112 111 110 102 102 104 110 115 108 99 88 87 89 87 80 82 90 89 88 90 88 85 83
233 202 175 243 99 121 129 137 136 120 126 103 126 110 111 125 142 143 146 151 142 138 132 125 113 111 107 102 99 94 98 107 114 115 114 105 89 83 90 88 82 86 90 90 91 88 85 84 83
205 178 183 157 122 130 132 137 130 150 120 126 114 116 123 135 138 104 98 77 91 130 123 122 113 103 100 100 98 98 101 111 113 115 110 101 87 84 84 85 85 87 90 90 89 87 84 82 82
236 191 189 162 143 143 141 151 139 127 117 126 127 121 124 134 104 128 115 127 161 119 125 121 114 111 110 109 108 106 107 114 116 113 103 91 86 87 85 84 87 87 90 87 86 84 81 80 78
267 205 194 178 149 138 144 158 122 157 124 133 130 135 153 107 119 114 159 187 178 128 153 129 130 122 117 115 115 109 108 112 117 118 106 102 94 95 102 97 95 90 93 91 88 85 82 78 73
285 250 195 159 149 146 149 151 162 135 120 172 175 146 124 131 152 153 174 173 196 172 136 138 138 129 124 123 127 120 118 114 121 129 122 127 113 114 112 100 96 94 91 91 92 90 87 78 68
258 242 195 154 160 150 161 174 167 162 148 119 121 159 126 144 153 147 131 159 152 164 123 151 137 146 141 130 134 124 128 123 133 125 112 117 106 111 110 102 102 90 85 83 81 90 90 88 74
297 236 189 173 159 161 159 150 153 149 152 158 158 148 143 150 155 137 174 195 231 157 132 148 168 160 147 135 145 131 137 133 113 113 91 98 104 105 102 107 97 78 84 122 91 102 80 107 75
275 47 174 82 160 152 156 154 157 156 165 161 162 144 154 147 144 146 184 169 113 115 82 176 162 161 156 121 110 146 129 127 122 113 97 105 94 112 255 119 101 87 48 71 51 65 101 108 118
250 161 178 132 144 149 157 160 156 141 163 190 166 147 153 154 146 158 196 155 167 161 118 185 165 157 154 131 166 148 148 128 125 116 116 111 115 80 68 103 100 104 114 84 82 79 94 112 119
277 240 170 160 158 158 151 164 146 144 148 152 154 159 151 158 152 154 130 162 158 178 190 138 144 152 167 161 165 158 142 131 122 106 150 123 120 125 102 87 81 108 76 99 90 94 74 65 84
213 203 181 170 171 154 153 147 165 163 160 158 158 157 159 159 163 159 163 186 184 203 163 151 145 156 156 143 135 126 157 140 134 119 50 109 123 122 106 104 111 98 84 94 91 71 70 42 77
235 206 171 190 149 146 168 145 149 157 163 163 162 162 165 164 171 164 170 181 202 207 166 147 144 139 148 148 150 141 149 137 145 132 147 92 120 116 120 99 117 124 101 84 100 87 81 65 49
223 44 229 199 192 169 170 150 150 163 167 165 168 168 166 170 172 169 164 195 225 182 165 163 170 147 155 159 152 140 165 150 135 133 116 128 122 128 96 121 113 136 97 109 114 126 134 123 104
230 288 288 217 193 188 182 150 148 165 170 171 171 174 172 174 173 170 167 196 229 182 177 162 185 150 154 147 159 150 146 126 203 122 126 125 128 124 136 112 128 130 145 116 150 135 141 154 122
243 317 302 185 200 201 195 175 156 168 177 180 177 178 178 178 186 176 177 204 222 204 176 182 175 161 155 145 155 151 167 158 157 195 127 151 147 142 132 129 142 114 125 135 152 157 153 151 131
204 80 109 157 175 209 220 203 175 173 164 187 186 185 189 175 183 180 183 209 230 203 186 188 173 174 167 151 157 149 158 142 130 118 138 160 147 159 152 163 150 148 124 125 151 145 134 157 160
226 166 162 116 129 140 151 218 204 192 188 188 198 189 182 210 184 184 199 199 232 216 192 186 175 185 177 172 193 175 178 177 176 180 178 192 171 172 178 132 134 160 136 151 139 151 156 157 165
144 119 159 149 153 177 160 192 232 204 205 199 201 192 188 186 215 213 219 193 227 250 209 189 181 187 187 189 165 173 187 199 190 197 188 163 184 173 177 174 175 161 146 167 151 158 163 158 153
139 177 144 144 147 157 189 114 228 184 211 212 208 196 191 199 201 222 209 216 189 241 249 196 187 192 197 188 173 184 196 183 168 203 224 171 205 194 188 180 171 194 212 192 174 193 183 175 165
131 155 141 156 293 254 217 190 188 189 171 192 206 208 205 209 203 188 225 204 216 241 240 224 190 188 198 193 183 190 189 214 186 193 204 188 200 206 206 181 177 203 205 222 202 188 191 198 193
184 190 187 201 182 234 193 200 212 195 197 196 193 206 200 194 205 195 186 202 223 234 234 236 197 194 193 196 197 201 197 211 200 199 181 211 206 171 198 184 201 205 177 185 194 204 191 196 207
212 220 222 226 346 320 312 312 174 205 170 198 198 207 206 200 215 191 198 209 212 222 242 242 220 204 206 204 203 202 207 210 210 216 220 214 201 194 174 199 206 212 213 210 211 220 226 225 216
208 229 230 181 245 241 131 304 35 161 197 173 187 196 210 209 201 196 202 208 208 215 234 230 215 211 212 213 211 211 208 218 233 224 237 264 203 159 201 185 205 219 217 224 228 246 240 229 244
240 231 230 236 174 255 343 331 208 201 193 210 202 191 199 210 203 210 210 218 229 212 226 227 200 224 217 216 213 216 217 224 221 230 230 225 247 227 248 174 186 206 201 206 218 248 230 236 241
228 236 251 253 233 242 160 271 238 261 205 207 223 218 205 215 210 213 201 218 194 217 229 218 235 227 226 230 226 223 223 230 230 228 244 253 244 222 208 226 209 222 238 243 230 271 281 264 274
225 224 226 249 252 274 278 181 187 214 202 180 189 221 217 235 225 223 198 220 212 204 218 231 225 210 222 226 230 233 233 241 242 240 243 239 241 243 232 234 228 246 252 249 250 254 270 261 283
Height
3155 3155 3157 3154 3162 3159 3160 3163 3165 3166 3169 3171 3169 3170 3172 3171 3171 3177 3180 3180 3184 3186 3188 3190 3191 3192 3193 3193 3194 3195 3195 3196 3197 3198 3198 3198 3198 3198 3198 3199 3200 3201 3202 3202 3202 3203 3204 3205 3205
3157 3154 3158 3157 3161 3158 3163 3166 3168 3170 3171 3171 3171 3175 3174 3174 3174 3176 3183 3186 3186 3188 3190 3191 3193 3194 3194 3194 3195 3196 3196 3197 3198 3200 3200 3200 3200 3201 3201 3202 3202 3203 3204 3204 3205 3206 3207 3207 3208
3159 3158 3160 3159 3160 3160 3163 3168 3169 3172 3174 3174 3174 3178 3176 3178 3182 3183 3184 3187 3188 3189 3191 3193 3194 3195 3195 3196 3196 3197 3197 3199 3200 3201 3202 3203 3204 3204 3204 3204 3205 3205 3206 3206 3207 3208 3209 3209 3210
3158 3164 3164 3161 3158 3163 3165 3169 3171 3173 3177 3176 3175 3178 3182 3183 3183 3184 3187 3189 3189 3191 3193 3195 3196 3197 3197 3198 3199 3199 3200 3200 3201 3203 3204 3206 3207 3207 3207 3207 3207 3207 3208 3208 3209 3210 3211 3212 3212
3160 3163 3165 3160 3162 3164 3168 3171 3173 3175 3175 3178 3177 3180 3183 3185 3185 3187 3188 3190 3191 3193 3194 3196 3197 3198 3199 3198 3199 3201 3202 3203 3205 3206 3207 3208 3209 3209 3209 3209 3209 3210 3211 3211 3212 3213 3214 3214 3215
3161 3162 3164 3161 3164 3167 3170 3173 3175 3175 3177 3180 3180 3181 3185 3187 3189 3190 3192 3192 3192 3195 3196 3198 3199 3200 3200 3201 3202 3203 3204 3206 3208 3209 3210 3210 3210 3210 3210 3211 3211 3212 3213 3214 3215 3216 3217 3217 3218
3160 3160 3161 3162 3164 3167 3171 3174 3175 3178 3180 3183 3182 3182 3188 3190 3191 3190 3193 3194 3195 3196 3198 3199 3200 3202 3203 3205 3206 3207 3208 3209 3210 3210 3211 3211 3211 3211 3212 3213 3214 3215 3215 3217 3218 3219 3219 3220 3221
3159 3160 3159 3161 3161 3169 3172 3175 3175 3178 3181 3185 3183 3186 3188 3190 3193 3198 3194 3195 3196 3199 3200 3201 3202 3204 3206 3207 3208 3209 3210 3210 3209 3210 3211 3212 3213 3214 3215 3215 3216 3217 3218 3219 3220 3222 3222 3223 3223
3160 3160 3153 3160 3164 3168 3173 3173 3177 3179 3181 3184 3187 3187 3189 3195 3196 3198 3196 3199 3200 3202 3202 3203 3205 3206 3207 3209 3209 3210 3210 3210 3209 3208 3208 3211 3214 3215 3216 3216 3219 3222 3224 3224 3225 3225 3225 3225 3226
3160 3154 3158 3161 3165 3169 3172 3174 3177 3182 3186 3184 3187 3188 3192 3197 3197 3198 3198 3199 3201 3203 3203 3202 3205 3207 3209 3211 3212 3212 3213 3212 3209 3215 3214 3210 3212 3215 3217 3219 3224 3227 3229 3229 3230 3230 3228 3227 3227
3161 3142 3152 3158 3163 3168 3171 3173 3180 3181 3184 3186 3188 3190 3195 3198 3199 3202 3200 3203 3203 3204 3205 3206 3207 3208 3211 3212 3213 3213 3214 3214 3212 3217 3215 3213 3216 3221 3225 3225 3227 3229 3229 3226 3230 3231 3224 3227 3228
3164 3151 3157 3152 3163 3168 3175 3177 3182 3183 3186 3186 3189 3191 3196 3199 3202 3205 3204 3202 3205 3203 3205 3207 3206 3210 3212 3214 3216 3215 3216 3219 3220 3218 3221 3221 3220 3223 3211 3223 3227 3232 3230 3230 3232 3236 3234 3232 3234
3159 3161 3159 3161 3164 3171 3175 3178 3179 3183 3185 3185 3189 3193 3196 3201 3204 3207 3205 3205 3207 3206 3208 3206 3208 3210 3213 3214 3215 3217 3220 3224 3224 3227 3224 3226 3225 3223 3221 3226 3228 3231 3230 3237 3237 3238 3238 3237 3238
3160 3162 3163 3165 3166 3168 3174 3176 3181 3183 3186 3187 3192 3195 3199 3202 3206 3208 3207 3208 3209 3208 3207 3209 3210 3211 3213 3214 3215 3219 3222 3226 3228 3227 3214 3229 3228 3227 3224 3225 3229 3234 3237 3240 3239 3238 3238 3241 3243
3160 3159 3163 3163 3167 3169 3172 3176 3180 3184 3188 3190 3194 3197 3201 3204 3207 3209 3209 3210 3210 3208 3207 3209 3210 3212 3215 3216 3218 3220 3223 3227 3230 3228 3226 3230 3230 3232 3230 3229 3232 3234 3237 3239 3239 3240 3243 3244 3246
3160 3161 3162 3163 3164 3154 3177 3175 3179 3184 3188 3191 3196 3199 3202 3205 3206 3209 3210 3210 3210 3207 3209 3210 3211 3213 3216 3218 3220 3221 3223 3227 3230 3232 3231 3231 3233 3232 3230 3231 3234 3236 3237 3236 3241 3241 3245 3248 3249
3160 3160 3163 3163 3163 3168 3173 3174 3179 3186 3189 3192 3196 3199 3202 3205 3206 3208 3210 3209 3208 3208 3210 3211 3213 3214 3217 3219 3221 3222 3224 3226 3228 3231 3232 3233 3232 3231 3231 3235 3238 3239 3239 3239 3240 3244 3246 3250 3251
3158 3157 3156 3161 3163 3166 3171 3174 3180 3186 3190 3193 3196 3199 3203 3204 3206 3207 3210 3209 3207 3209 3210 3213 3214 3216 3218 3221 3222 3224 3226 3227 3228 3230 3231 3231 3232 3232 3235 3238 3238 3241 3239 3239 3243 3245 3248 3248 3252
3157 3159 3159 3156 3159 3166 3172 3174 3178 3185 3190 3193 3196 3198 3202 3204 3206 3208 3210 3208 3207 3209 3210 3211 3213 3216 3219 3221 3223 3225 3227 3228 3230 3231 3232 3233 3233 3235 3238 3241 3239 3242 3242 3242 3243 3244 3247 3250 3251
3153 3157 3157 3159 3165 3169 3168 3173 3173 3178 3181 3189 3193 3196 3199 3200 3205 3207 3208 3208 3207 3208 3210 3211 3214 3217 3219 3221 3223 3226 3227 3228 3231 3232 3233 3235 3235 3236 3238 3241 3242 3244 3241 3242 3244 3245 3247 3249 3253
3154 3153 3157 3162 3167 3169 3170 3170 3173 3176 3180 3181 3187 3189 3193 3198 3202 3204 3207 3209 3206 3207 3209 3211 3214 3217 3220 3220 3225 3227 3228 3229 3231 3233 3234 3236 3236 3237 3238 3239 3241 3241 3240 3242 3244 3246 3246 3248 3253
3149 3155 3156 3156 3166 3166 3168 3172 3170 3172 3176 3178 3182 3185 3191 3195 3200 3202 3205 3206 3206 3207 3210 3210 3214 3217 3219 3221 3223 3224 3228 3230 3231 3233 3235 3235 3236 3238 3238 3240 3240 3241 3243 3242 3245 3245 3246 3248 3251
3153 3157 3157 3161 3165 3168 3168 3170 3168 3166 3171 3172 3176 3181 3187 3188 3196 3200 3203 3204 3204 3206 3208 3210 3212 3215 3218 3221 3225 3227 3227 3229 3234 3235 3234 3237 3236 3237 3239 3240 3241 3242 3243 3244 3245 3245 3246 3249 3249
3149 3158 3161 3163 3165 3168 3162 3163 3165 3162 3159 3160 3169 3177 3183 3186 3188 3193 3202 3201 3204 3205 3206 3210 3210 3213 3216 3220 3223 3226 3225 3229 3233 3227 3238 3236 3238 3238 3239 3240 3241 3242 3243 3244 3245 3244 3245 3248 3249
3151 3153 3153 3159 3165 3152 3149 3160 3150 3150 3154 3157 3159 3169 3179 3186 3186 3192 3198 3202 3202 3203 3204 3206 3210 3212 3215 3218 3222 3224 3226 3229 3231 3234 3231 3234 3235 3237 3239 3240 3241 3241 3242 3243 3245 3245 3245 3247 3248
3150 3151 3148 3152 3150 3156 3152 3149 3147 3148 3150 3155 3160 3166 3173 3178 3182 3187 3196 3199 3198 3201 3204 3204 3209 3211 3214 3217 3219 3222 3225 3228 3229 3230 3232 3228 3231 3235 3237 3239 3240 3241 3242 3243 3244 3245 3244 3244 3246
3147 3148 3149 3154 3154 3154 3156 3154 3148 3148 3151 3153 3156 3162 3166 3173 3179 3183 3189 3194 3196 3199 3203 3204 3206 3209 3212 3215 3218 3220 3223 3224 3227 3228 3227 3225 3216 3228 3231 3235 3237 3239 3241 3242 3243 3243 3243 3243 3243
3142 3147 3147 3143 3147 3152 3152 3152 3155 3155 3152 3153 3155 3159 3163 3169 3175 3181 3185 3188 3189 3195 3201 3200 3202 3208 3210 3213 3215 3218 3220 3222 3226 3227 3229 3230 3226 3231 3224 3232 3235 3239 3240 3241 3242 3242 3241 3241 3242
3142 3143 3144 3141 3140 3141 3146 3153 3155 3154 3155 3157 3155 3157 3162 3166 3172 3177 3182 3180 3183 3193 3195 3198 3201 3205 3208 3211 3213 3215 3217 3218 3222 3225 3224 3228 3229 3233 3234 3235 3236 3238 3239 3239 3240 3241 3240 3239 3240
3138 3141 3143 3141 3140 3138 3138 3145 3150 3149 3149 3151 3157 3154 3157 3162 3168 3172 3180 3178 3172 3187 3192 3196 3197 3200 3205 3208 3211 3213 3215 3216 3217 3221 3223 3225 3227 3228 3230 3233 3235 3237 3239 3239 3241 3240 3239 3237 3238